Regional Weather Roundup
Issued by NWS

Home | Current Version | Previous Version | Graphics & Text | Print | Product List | Glossary Off
Versions: 1 2 3 4 5 6 7 8 9 10 11 12 13 14 15 16 17 18 19 20 21 22 23 24 25 26 27 28 29 30 31 32 33 34 35 36 37 38 39 40 41 42 43 44 45 46 47 48 49 50

000
ASUS43 KMKX 280321
RWRWI

WISCONSIN REGIONAL WEATHER ROUNDUP
NATIONAL WEATHER SERVICE MILWAUKEE/SULLIVAN WI
1000 PM CDT TUE SEP 27 2016

NOTE: "FAIR" INDICATES FEW OR NO CLOUDS BELOW 12,000 FEET WITH NO
SIGNIFICANT WEATHER AND/OR OBSTRUCTIONS TO VISIBILITY.

WIZ001-002-006>008-014>016-023>028-280400-
NORTHWEST WISCONSIN

CITY           SKY/WX    TMP DP  RH WIND       PRES   REMARKS
SUPERIOR ARPT  CLOUDY    51  46  84 N3        29.85R
ASHLAND        CLOUDY    50  47  89 W3        29.81R
HAYWARD        CLOUDY    48  45  89 N6        29.82R
SIREN          CLOUDY    47  46  93 NW8       29.86R
CUMBERLAND     CLOUDY    45  43  93 NW13      29.84R
RICE LAKE      CLOUDY    48  45  89 NW6       29.84S
CHETEK         NOT AVBL
LADYSMITH      CLOUDY    48  47  94 NW8       29.82R
EAU CLAIRE     CLOUDY    48  46  93 NW9       29.81S
MENOMONIE      CLOUDY    47  47 100 NW10      29.83S
NEW RICHMOND   CLOUDY    47  46  97 NW7       29.86S
OSCEOLA        CLOUDY    48  48 100 NW6       29.90R
$$

WIZ003>005-009-010-017-018-280400-
NORTH CENTRAL WISCONSIN

CITY           SKY/WX    TMP DP  RH WIND       PRES   REMARKS
MANITOWISH WTR NOT AVBL
ARBOR VITAE    LGT RAIN  49  48  96 NW7       29.75R
WOODRUFF       LGT RAIN  49  48  96 NW7       29.75R
RHINELANDER    CLOUDY    48  48 100 W8        29.75R
EAGLE RIVER    DRIZZLE   47  47 100 CALM      29.73S
LAND O LAKES   DRIZZLE   49  48  98 NW6       29.74S
PHILLIPS       CLOUDY    46  46 100 NW7       29.77S
TOMAHAWK       CLOUDY    46  45  93 NW8       29.76S
MEDFORD        CLOUDY    46  46 100 NW9       29.77S
MERRILL        CLOUDY    47  47  98 NW5       29.76S
$$

WIZ029-030-035-036-043>047-280400-
CENTRAL WISCONSIN

CITY           SKY/WX    TMP DP  RH WIND       PRES   REMARKS
WAUSAU         CLOUDY    48  46  93 NW7       29.74S
MOSINEE        CLOUDY    48  48 100 NW8       29.77R
MARSHFIELD     CLOUDY    48  45  89 NW9       29.77S
STEVENS POINT  CLOUDY    46  46 100 W3        29.76S
WAUPACA        CLOUDY    51  50  95 W6        29.76S
WAUTOMA        CLOUDY    48  46  93 W8        29.77S
WISC RAPIDS    CLOUDY    49  48  97 NW8       29.78S
CAMP DOUGLAS   PTCLDY    48  47  95 NW8       29.79S
$$

WIZ011>013-019>022-031-037>040-048>050-280400-
NORTHEAST WISCONSIN

CITY           SKY/WX    TMP DP  RH WIND       PRES   REMARKS
ANTIGO         CLOUDY    46  46 100 CALM      29.74S
SHAWANO        CLOUDY    51  49  90 CALM      29.74R
OCONTO         NOT AVBL
STURGEON BAY   CLOUDY    51  50  96 W3        29.72S
GREEN BAY      CLOUDY    50  50 100 W7        29.73S
MANITOWOC      CLOUDY    51  48  89 MISG      29.74S
APPLETON       CLOUDY    48  48 100 W7        29.73S
CLINTONVILLE   NOT AVBL
OSHKOSH        CLOUDY    50  47  89 W7        29.75S
$$

WIZ032>034-041-042-053>061-280400-
SOUTHWEST WISCONSIN

CITY           SKY/WX    TMP DP  RH WIND       PRES   REMARKS
LA CROSSE      LGT RAIN  52  48  86 NW9       29.81S
SPARTA         DRIZZLE   47  47  98 W3        29.82R
VIROQUA        CLOUDY    48  47  97 NW5       29.81S
BOSCOBEL       LGT RAIN  52  47  83 W5        29.82F
PRAIRIE DU CHI CLOUDY    53  45  74 N3G9      29.81S
PLATTEVILLE    CLOUDY    52  48  87 N14       29.82R
$$

WIZ056-057-062-063-064-067-068-280400-
SOUTH CENTRAL WISCONSIN

CITY           SKY/WX    TMP DP  RH WIND       PRES   REMARKS
REEDSBURG      NOT AVBL
BARABOO/DELLS  RAIN      47  46  93 W5        29.78F
LONE ROCK      CLOUDY    51  46  83 W5        29.81F
MINERAL POINT  CLOUDY    50  46  87 N6        29.81R
MADISON        CLOUDY    49  46  90 NW3       29.79F
MIDDLETON      CLOUDY    50  49  95 W6        29.80S
WATERTOWN      DRIZZLE   48  48 100 W3        29.78F
MONROE         CLOUDY    50  45  81 N9        29.81R
JANESVILLE     NOT AVBL
$$

WIZ051-052-058>065-066-070>072-280400-
SOUTHEAST WISCONSIN

CITY           SKY/WX    TMP DP  RH WIND       PRES   REMARKS
MILWAUKEE      LGT RAIN  53  47  79 NW5       29.78F
WAUKESHA       LGT RAIN  46  45  93 NW8       29.79S
MILWAUKEE/TIMM DRIZZLE   50  45  81 W3        29.79S
RACINE         LGT RAIN  52  46  80 N5        29.80F
BURLINGTON     CLOUDY    49  45  84 CALM      29.80R
KENOSHA        CLOUDY    53  45  74 NW8       29.79F
FOND DU LAC    LGT RAIN  50  47  89 W6        29.76S
SHEBOYGAN      LGT RAIN  50  47  89 W7        29.75S
WEST BEND      RAIN      48  46  93 W6        29.77S
JUNEAU         RAIN      48  47  95 W5        29.78F
$$

LSZ147-162-280400-
LAKE SUPERIOR

STATION/POSITION TIME  TEMP    WIND        PRES    WAVE
                       AIR SEA DIR/SP/G            HT/PER
                 (UTC) (F)     (DEG/KT/KT) (MB)    (FT/S)
W MID LAKE BUOY  0250   56 51   10/ 17/ 21 1007.2R   3/ 4
DEVILS ISLAND    0300   53     340/ 21/ 23 1009.3R
SAXON HARBOR     0200   54     310/ 16/ 18 1008.1R
$$

LMZ867-665-643>646-280400-
LAKE MICHIGAN

STATION/POSITION TIME  TEMP    WIND        PRES    WAVE
                       AIR SEA DIR/SP/G            HT/PER
                 (UTC) (F)     (DEG/KT/KT) (MB)    (FT/S)
CHAMBERS ISLAND  0200   53     250/  4/  7 1005.8R
N MID LAKE BUOY  0250   56 66  280/  6/  8 1005.2R   3/ 6
NORTHPORT PIER   0200   54     280/  5/  9 1005.8R
SISTER BAY       0153   54     330/ 13/ 14   N/A
ALGOMA LAKESHORE 0217          260/  6/  9   N/A
KEWAUNEE LAKESHO 0200   51     260/  8/ 10 1006.0R
SHEBOYGAN LAKESH 0300   51     240/  7/  8 1007.5S
PORT WASHINGTON  0240   52     240/  4/  5 1008.8S
ATWATER BUOY     0300   52 54  270/  6/  6 1008.4F
MILWAUKEE LAKESH 0310   52     290/  5/  7   N/A
S MID LAKE BUOY  0250   58 70  330/ 10/ 16 1008.1R   3/ 5
KENOSHA   LAKESH 0300   54     350/  8/ 12 1008.8F
$$

TC  - TEMPERATURE IN CELSIUS
VSB - VISIBILITY IN STATUTE MILES
WCI - WIND CHILL INDEX
HX  - HEAT INDEX




USA.gov is the U.S. government's official web portal to all federal, state and local government web resources and services.